[[{"header":{"parameterUnit":"m.s-1","parameterCategory":1,"la1":30.2991,"la2":30.254,"lo1":-89.0895,"lo2":-89.0444,"dy":0.0017,"dx":0.0017,"nx":28,"ny":28,"refTime":"2024-09-01T21:00:00:Z","depth":0,"parameterNumber":2,"parameterNumberName":"U-component_of_WINDS"},"data":[0,0,0,0,0,0,0,0,0,0,0,0,0,0,0,0,0,0,0,0,0,0,0,0,0,0,0,0,0,0,0,0,0,0,0,0,0,0,0,0,0,0,0,0,0,0,0,0,0,0,0,0,0,0,0,0,0,0,-3.6772,-3.6772,0,-3.6745,-3.6744,-3.6744,-3.6654,-3.6652,-3.665,-3.6648,-3.6623,-3.6624,-3.6625,0,0,0,0,0,0,0,0,0,0,0,0,0,-3.6752,-3.6753,-3.6772,-3.6772,-3.6771,-3.6745,-3.6744,-3.6744,-3.6654,-3.6651,-3.6649,-3.6647,-3.6622,-3.6624,-3.6625,0,0,0,0,0,0,0,0,0,0,0,0,0,-3.6746,-3.6753,-3.6772,-3.6723,-3.6718,-3.6745,-3.6744,-3.6744,-3.6654,-3.6651,-3.6648,-3.6646,-3.6622,-3.6624,-3.6626,-3.6698,0,0,-3.6631,-3.6632,0,0,0,0,0,0,0,0,-3.6747,-3.6747,-3.6731,-3.6727,-3.6721,-3.6699,-3.6728,-3.6729,-3.6655,-3.6679,-3.6648,-3.6644,-3.6651,-3.665,-3.6652,-3.6697,-3.6696,-3.6631,-3.6633,-3.6633,-3.6634,0,0,0,0,0,0,0,-3.6747,-3.6748,-3.6761,-3.6731,-3.6725,-3.6704,-3.67,-3.6728,-3.6683,-3.6677,-3.667,-3.6668,-3.6648,-3.665,-3.6651,-3.6695,-3.6631,-3.6633,-3.6634,-3.6635,-3.6802,-3.6806,0,0,0,0,0,0,-3.6754,-3.6749,-3.6762,-3.676,-3.6727,-3.6707,-3.6703,-3.671,-3.6682,-3.6675,-3.667,-3.6664,-3.6649,-3.6649,-3.6649,-3.6734,-3.6633,-3.6635,-3.6636,-3.6799,-3.6803,-3.6807,0,0,0,0,0,0,-3.6754,-3.6756,-3.6763,-3.6753,-3.6752,-3.6711,-3.6719,-3.6711,-3.6713,-3.6677,-3.6669,-3.6681,-3.6646,-3.6647,-3.6687,-3.6732,-3.6636,-3.6638,-3.6795,-3.68,-3.6805,-3.6904,0,0,0,0,0,0,-3.6754,-3.6757,-3.6782,-3.6754,-3.6753,-3.68,-3.6722,-3.6712,-3.6716,-3.6707,-3.6685,-3.6678,-3.6644,-3.6685,-3.6689,-3.6733,-3.6639,-3.6791,-3.6797,-3.6803,-3.6896,-3.6911,-3.6924,0,0,0,0,0,-3.6753,-3.6811,-3.6784,-3.6786,-3.6784,-3.6802,-3.6802,-3.676,-3.672,-3.6746,-3.6724,-3.6679,-3.6727,-3.669,-3.6694,-3.6739,-3.6788,-3.6796,-3.6803,-3.689,-3.6908,-3.6924,0,0,0,0,0,0,-3.6845,-3.6806,-3.6776,-3.6825,-3.6818,-3.6787,-3.6819,-3.6781,-3.6785,-3.6777,-3.6726,-3.6722,-3.6771,-3.6759,-3.6718,-3.6809,-3.675,-3.6759,-3.6815,-3.6832,-3.6846,-3.6848,-3.6641,0,0,0,0,0,-3.6872,-3.6889,-3.6854,-3.6901,-3.6899,-3.686,-3.6867,-3.6836,-3.6826,-3.6823,-3.6803,-3.6797,-3.6811,-3.6821,-3.6832,-3.6895,-3.689,-3.6928,-3.6942,-3.6954,-3.6962,-3.6998,-3.7015,-3.6831,-3.6831,-3.6831,0,0,-3.6925,-3.6906,-3.692,-3.692,-3.691,-3.6931,-3.6858,-3.6882,-3.6898,-3.6827,-3.6863,-3.685,-3.684,-3.6893,-3.6915,-3.6884,-3.7012,-3.6964,-3.6973,-3.6975,-3.7007,-3.7025,-3.704,-3.6836,-3.6836,-3.6835,0,0,-3.7034,-3.7021,-3.706,-3.7053,-3.7039,-3.7013,-3.7023,-3.6999,-3.6987,-3.7023,-3.6971,-3.6991,-3.7015,-3.701,-3.7012,-3.7124,-3.7084,-3.7129,-3.7203,-3.7238,-3.7253,-3.7265,-3.7307,-3.7322,-3.7137,-3.7138,-3.7138,0,-3.7103,-3.7131,-3.7085,-3.7113,-3.7116,-3.7053,-3.7094,-3.7089,-3.7081,-3.7085,-3.7051,-3.7083,-3.7071,-3.7124,-3.7152,-3.7154,-3.7166,-3.7131,-3.7254,-3.7266,-3.7277,-3.7317,-3.7332,-3.7143,-3.7143,-3.7142,-3.7142,0,-3.7217,-3.7238,-3.7271,-3.7265,-3.7271,-3.7306,-3.7268,-3.728,-3.725,-3.7229,-3.7269,-3.7254,-3.7262,-3.7272,-3.7242,-3.7322,-3.7303,-3.7263,-3.7202,-3.7301,-3.7337,-3.7352,-3.7151,-3.7149,-3.7148,-3.7146,0,0,-3.738,-3.7351,-3.7364,-3.7361,-3.7344,-3.736,-3.7394,-3.7401,-3.7414,-3.7411,-3.744,-3.7464,-3.7427,-3.7428,-3.7398,-3.7429,-3.7522,-3.7385,-3.7384,-3.7412,-3.7612,-3.7643,-3.7661,-3.7496,-3.7499,-3.7501,-3.7613,0,-3.7485,-3.7538,-3.75,-3.7561,-3.7581,-3.7524,-3.7554,-3.7548,-3.753,-3.7546,-3.7527,-3.7545,-3.7494,-3.7495,-3.7524,-3.7505,-3.7562,-3.7496,-3.7524,-3.7525,-3.7528,-3.7679,-3.7711,-3.7818,-3.7627,-3.7629,-3.7631,0,-3.7612,-3.7616,-3.7679,-3.7661,-3.7668,-3.7695,-3.77,-3.7716,-3.7709,-3.7695,-3.7699,-3.7662,-3.7696,-3.7638,-3.7686,-3.7642,-3.7652,-3.7645,-3.7648,-3.7649,-3.7584,-3.7685,-3.785,-3.7867,-3.7652,-3.765,-3.7649,0,-3.7727,-3.7748,-3.7789,-3.7788,-3.7767,-3.7788,-3.7781,-3.7772,-3.778,-3.7786,-3.7791,-3.7801,-3.7807,-3.7817,-3.7785,-3.7745,-3.7839,-3.7776,-3.7829,-3.783,-3.7851,-3.785,-3.8021,-3.7857,-3.7857,-3.7856,-3.7856,0,-3.7847,-3.7888,-3.784,-3.7865,-3.7911,-3.7869,-3.7916,-3.7903,-3.7896,-3.792,-3.7871,-3.7895,-3.7851,-3.7872,-3.7848,-3.7893,-3.7896,-3.7886,-3.788,-3.7891,-3.7892,-3.7896,-3.7888,-3.7861,-3.786,-3.7859,-3.7858,0,-3.7982,-3.7951,-3.7992,-3.797,-3.7966,-3.8001,-3.7983,-3.8007,-3.7987,-3.8018,-3.8023,-3.7993,-3.8015,-3.7984,-3.8003,-3.7987,-3.805,-3.8031,-3.8051,-3.8046,-3.8101,-3.8097,-3.828,-3.8303,-3.8125,-3.8126,-3.8128,0,-3.806,-3.8091,-3.8073,-3.8085,-3.808,-3.81,-3.8109,-3.807,-3.8081,-3.8078,-3.8104,-3.8121,-3.8133,-3.8171,-3.8152,-3.8168,-3.815,-3.8213,-3.8152,-3.8163,-3.8152,-3.8151,-3.8155,-3.8226,-3.8228,-3.823,-3.8231,0,-3.8204,-3.8188,-3.8201,-3.821,-3.8222,-3.8227,-3.8229,-3.8242,-3.8202,-3.8218,-3.8239,-3.8249,-3.8269,-3.8288,-3.8299,-3.8293,-3.8257,-3.8251,-3.8264,-3.8276,-3.8287,-3.8283,-3.8086,-3.8247,-3.8245,-3.8244,-3.8243,-3.8242,-3.8313,-3.8339,-3.8331,-3.8348,-3.8346,-3.835,-3.8372,-3.8356,-3.8373,-3.8386,-3.8363,-3.8391,-3.8388,-3.8398,-3.8398,-3.8421,-3.8394,-3.8413,-3.8418,-3.8423,-3.8432,-3.8284,-3.8423,-3.8423,-3.8422,-3.8422,-3.8422,0,-3.8455,-3.8448,-3.8464,-3.8469,-3.8484,-3.8448,-3.845,-3.8465,-3.849,-3.849,-3.8503,-3.853,-3.855,-3.8534,-3.8551,-3.8573,-3.8557,-3.8579,-3.8577,-3.8577,-3.8455,-3.8442,-3.8591,-3.8591,-3.8591,-3.8591,-3.8591,-3.8591,-3.853,-3.8572,-3.8556,-3.8599,-3.8591,-3.8618,-3.8623,-3.8627,-3.8627,-3.8659,-3.8675,-3.8664,-3.8659,-3.8676,-3.8693,-3.8688,-3.8697,-3.8726,-3.8715,-3.8601,-3.8585,-3.8569,-3.8557,-3.8728,-3.8728,-3.8835,-3.8836,-3.8837]},{"header":{"parameterUnit":"m.s-1","parameterCategory":1,"la1":30.2991,"la2":30.254,"lo1":-89.0895,"lo2":-89.0444,"dy":0.0017,"dx":0.0017,"nx":28,"ny":28,"refTime":"2024-09-01T21:00:00:Z","depth":0,"parameterNumber":3,"parameterNumberName":"V-component_of_WINDS"},"data":[0,0,0,0,0,0,0,0,0,0,0,0,0,0,0,0,0,0,0,0,0,0,0,0,0,0,0,0,0,0,0,0,0,0,0,0,0,0,0,0,0,0,0,0,0,0,0,0,0,0,0,0,0,0,0,0,0,0,1.4393,1.4394,0,1.4464,1.4465,1.4465,1.4545,1.4546,1.4547,1.4548,1.4616,1.4617,1.4618,0,0,0,0,0,0,0,0,0,0,0,0,0,1.4324,1.4325,1.4393,1.4394,1.4395,1.4464,1.4465,1.4466,1.4545,1.4546,1.4548,1.4549,1.4616,1.4617,1.4618,0,0,0,0,0,0,0,0,0,0,0,0,0,1.437,1.4326,1.4393,1.4443,1.4448,1.4464,1.4465,1.4466,1.4544,1.4546,1.4548,1.455,1.4616,1.4617,1.4618,1.4588,0,0,1.4621,1.4621,0,0,0,0,0,0,0,0,1.4368,1.4373,1.4435,1.444,1.4445,1.4498,1.4465,1.4507,1.4544,1.4508,1.4548,1.4551,1.4575,1.458,1.4589,1.4592,1.4595,1.4621,1.4622,1.4622,1.4622,0,0,0,0,0,0,0,1.4364,1.437,1.4421,1.4436,1.4442,1.4461,1.4469,1.4474,1.453,1.4511,1.4517,1.4524,1.4578,1.4587,1.4591,1.4596,1.4621,1.4622,1.4623,1.4623,1.4578,1.4576,0,0,0,0,0,0,1.4354,1.4367,1.4419,1.4423,1.441,1.4461,1.447,1.4479,1.4531,1.454,1.4523,1.4528,1.4585,1.459,1.4593,1.4562,1.4622,1.4623,1.4624,1.458,1.4578,1.4576,0,0,0,0,0,0,1.4352,1.4358,1.4416,1.4397,1.4406,1.446,1.4469,1.4479,1.4489,1.454,1.455,1.4522,1.4586,1.4592,1.4589,1.4565,1.4624,1.4625,1.4582,1.4579,1.4577,1.4499,0,0,0,0,0,0,1.435,1.4357,1.4347,1.4396,1.4406,1.4411,1.4468,1.4479,1.4491,1.4498,1.4541,1.455,1.4588,1.4587,1.459,1.4568,1.4625,1.4584,1.4581,1.4577,1.4503,1.4494,1.4485,0,0,0,0,0,1.4347,1.4321,1.4346,1.4352,1.4395,1.441,1.4416,1.4461,1.4489,1.4478,1.4511,1.4549,1.4568,1.4586,1.4591,1.4568,1.4586,1.4582,1.4578,1.4508,1.4495,1.4485,0,0,0,0,0,0,1.4266,1.4329,1.4357,1.4346,1.4372,1.4423,1.4412,1.4447,1.4464,1.447,1.4525,1.4534,1.4524,1.4547,1.4566,1.4542,1.4582,1.4579,1.4528,1.4517,1.4508,1.4501,1.4626,0,0,0,0,0,1.4247,1.4255,1.4309,1.4294,1.4306,1.4357,1.4365,1.4398,1.4426,1.4437,1.447,1.4495,1.4507,1.4514,1.4527,1.4508,1.4518,1.4495,1.4485,1.4478,1.4473,1.4464,1.4453,1.4562,1.4562,1.4562,0,0,1.4207,1.4243,1.4244,1.4279,1.4303,1.4309,1.4365,1.4369,1.4373,1.4438,1.4437,1.4462,1.4494,1.4483,1.4479,1.45,1.4446,1.4472,1.4466,1.4465,1.4458,1.4448,1.4439,1.4559,1.456,1.456,0,0,1.4138,1.4166,1.4157,1.418,1.4217,1.4251,1.4249,1.4295,1.4314,1.4315,1.4364,1.437,1.4389,1.441,1.4423,1.4363,1.4397,1.4366,1.4316,1.4306,1.4298,1.429,1.4267,1.4259,1.4362,1.4361,1.4361,0,1.4083,1.4095,1.4147,1.4148,1.4161,1.4222,1.4212,1.4233,1.4271,1.4278,1.4302,1.4328,1.4354,1.4348,1.4334,1.4343,1.4341,1.436,1.4295,1.4288,1.4282,1.4261,1.4252,1.4357,1.4358,1.4358,1.4359,0,1.4026,1.4033,1.4021,1.4058,1.4071,1.4066,1.4116,1.4122,1.4155,1.4186,1.4186,1.422,1.4241,1.4243,1.4274,1.4241,1.4253,1.4285,1.4326,1.4267,1.4247,1.424,1.4351,1.4353,1.4354,1.4355,0,0,1.3904,1.3972,1.3966,1.3983,1.4029,1.4035,1.4034,1.4056,1.406,1.4085,1.4084,1.41,1.413,1.4145,1.4179,1.4171,1.412,1.4205,1.4206,1.4186,1.4084,1.4058,1.4047,1.4145,1.4143,1.4142,1.4081,0,1.3841,1.3842,1.3889,1.3877,1.3884,1.3943,1.3941,1.3968,1.3998,1.4007,1.404,1.405,1.409,1.4099,1.4094,1.4127,1.41,1.4133,1.4142,1.4141,1.4129,1.4038,1.401,1.395,1.4074,1.4073,1.4072,0,1.3766,1.3789,1.3777,1.3824,1.3828,1.3826,1.385,1.3859,1.3891,1.3914,1.3931,1.3971,1.3971,1.4012,1.4013,1.4034,1.4041,1.4058,1.4057,1.4057,1.4101,1.4033,1.3932,1.3922,1.4061,1.4062,1.4062,0,1.3676,1.3703,1.37,1.3714,1.3768,1.3765,1.3787,1.3822,1.3832,1.3854,1.3861,1.3882,1.3893,1.3908,1.3951,1.3977,1.3947,1.3991,1.3963,1.3962,1.3952,1.3951,1.3848,1.396,1.396,1.396,1.3961,0,1.3599,1.3589,1.366,1.3658,1.3648,1.3703,1.3692,1.372,1.375,1.3754,1.3806,1.3808,1.3867,1.3875,1.391,1.3905,1.391,1.3926,1.3935,1.392,1.3918,1.3923,1.3928,1.3958,1.3959,1.3959,1.3959,0,1.3495,1.3543,1.3543,1.3596,1.3609,1.3599,1.3644,1.3643,1.3677,1.3681,1.3685,1.3737,1.3749,1.3796,1.3819,1.3843,1.3825,1.3844,1.3814,1.3819,1.3788,1.3789,1.3683,1.3671,1.3792,1.3791,1.379,0,1.3442,1.3436,1.3488,1.3495,1.3516,1.3526,1.3537,1.3592,1.3601,1.3638,1.3633,1.365,1.3666,1.3683,1.3723,1.3741,1.3759,1.3721,1.3762,1.3747,1.3756,1.3755,1.3754,1.371,1.3709,1.3707,1.3706,0,1.3341,1.3365,1.338,1.3404,1.3417,1.3438,1.3462,1.3464,1.3525,1.3533,1.3547,1.356,1.3585,1.36,1.3625,1.3648,1.3686,1.3694,1.3688,1.3671,1.3653,1.366,1.3787,1.3695,1.3696,1.3697,1.3698,1.3698,1.3259,1.3256,1.3293,1.3308,1.3333,1.3354,1.3356,1.3391,1.3404,1.3429,1.3461,1.3471,1.3504,1.3542,1.3561,1.3569,1.3591,1.3582,1.358,1.3576,1.3568,1.3654,1.3574,1.3575,1.3575,1.3575,1.3576,0,1.3159,1.3186,1.32,1.3233,1.3245,1.3283,1.3312,1.3319,1.3327,1.3355,1.3371,1.3387,1.3403,1.3445,1.3465,1.3463,1.3481,1.3466,1.3465,1.3469,1.3549,1.3551,1.3451,1.3451,1.3451,1.3451,1.3451,1.3451,1.3108,1.3105,1.3134,1.3143,1.3171,1.3182,1.3195,1.3215,1.3238,1.3253,1.3268,1.3296,1.3329,1.3352,1.3368,1.338,1.3383,1.3362,1.3379,1.3452,1.3464,1.3475,1.3477,1.3363,1.3363,1.3299,1.3298,1.3298]}]]